Erie, CO

5:58 AM MST on November 18, 2017 (GMT -0700)
Erie Municipal Airport

Weather History for KEIK - November, 2013

Change the Weather History Date:

Friday, November 29, 2013

  Actual Average (KBJC) Record (KBJC)
Temperature  
Mean Temperature 44 °F -  
Max Temperature 63 °F 46 °F 69 °F (2003)
Min Temperature 25 °F 27 °F 6 °F (2004)
Degree Days  
Heating Degree Days 21    
Moisture  
Dew Point 22 °F    
Average Humidity 61    
Maximum Humidity 95    
Minimum Humidity 15    
Precipitation  
Precipitation 0.00 in - - ()
Sea Level Pressure  
Sea Level Pressure 30.11 in    
Wind  
Wind Speed 2 mph (WSW)    
Max Wind Speed 14 mph    
Max Gust Speed 16 mph    
Visibility 10 miles    
Events      
Averages and records for this station are not official NWS values.
T = Trace of Precipitation, MM = Missing Value Source: NWS Daily Summary

Daily Weather History Graph

Daily Weather History Graph

Search for Another Location

Airport or City:

Trip Planner

Search our weather history database for the weather conditions in past years. The results will help you decide how hot, cold, wet, or windy it might be!

Date:

Astronomy

Nov. 29, 2013 Rise Set
Actual Time 7:01 AM MST 4:35 PM MST
Civil Twilight 6:31 AM MST 5:05 PM MST
Nautical Twilight 5:57 AM MST 5:39 PM MST
Astronomical Twilight 5:25 AM MST 6:11 PM MST
Moon 3:09 AM MST (11/29) 2:22 PM MST (11/29)
Length of Visible Light 10h 34m
Length of Day
9h 34m
Waning Crescent, 13% of the Moon is Illuminated
Nov 29
Waning Crescent
Dec 2
New
Dec 9
First Quarter
Dec 17
Full
Dec 25
Last Quarter

Hourly Weather History & Observations

Time (MST) Temp. Windchill Dew Point Humidity Pressure Visibility Wind Dir Wind Speed Gust Speed Precip Events Conditions
12:14 AM 28.4 °F - 25.5 °F 89% 30.12 in 10.0 mi Calm Calm - N/A   Clear
12:34 AM 28.4 °F - 25.5 °F 89% 30.11 in 10.0 mi Calm Calm - N/A   Clear
12:54 AM 27.9 °F - 25.3 °F 90% 30.11 in 10.0 mi Calm Calm - N/A   Clear
1:14 AM 28.2 °F 24.4 °F 25.2 °F 88% 30.10 in 10.0 mi SSW 3.5 mph - N/A   Clear
1:34 AM 29.1 °F - 26.1 °F 88% 30.10 in 10.0 mi Calm Calm - N/A   Clear
1:54 AM 28.4 °F - 25.7 °F 90% 30.10 in 10.0 mi Calm Calm - N/A   Clear
2:14 AM 28.2 °F - 25.7 °F 90% 30.11 in 10.0 mi Calm Calm - N/A   Clear
2:34 AM 26.4 °F - 24.3 °F 92% 30.11 in 10.0 mi Calm Calm - N/A   Clear
2:54 AM 26.1 °F 20.5 °F 24.3 °F 93% 30.09 in 10.0 mi South 4.6 mph - N/A   Clear
3:14 AM 27.3 °F 23.4 °F 25.3 °F 92% 30.09 in 10.0 mi SW 3.5 mph - N/A   Clear
3:34 AM 27.5 °F 23.6 °F 25.5 °F 92% 30.09 in 10.0 mi South 3.5 mph - N/A   Clear
3:54 AM 28.4 °F - 25.9 °F 90% 30.09 in 10.0 mi Calm Calm - N/A   Clear
4:14 AM 28.2 °F - 25.9 °F 91% 30.09 in 10.0 mi Calm Calm - N/A   Clear
4:34 AM 27.5 °F - 25.5 °F 92% 30.09 in 10.0 mi Calm Calm - N/A   Clear
4:54 AM 27.5 °F - 25.9 °F 94% 30.09 in 10.0 mi Calm Calm - N/A   Clear
5:14 AM 27.0 °F - 25.3 °F 94% 30.09 in 10.0 mi Calm Calm - N/A   Clear
5:34 AM 28.2 °F 24.4 °F 26.6 °F 94% 30.09 in 10.0 mi South 3.5 mph - N/A   Clear
5:54 AM 27.1 °F - 25.5 °F 94% 30.09 in 10.0 mi Calm Calm - N/A   Clear
6:14 AM 26.2 °F 22.1 °F 24.8 °F 94% 30.09 in 10.0 mi SSW 3.5 mph - N/A   Clear
6:34 AM 26.2 °F 22.1 °F 24.4 °F 93% 30.09 in 10.0 mi South 3.5 mph - N/A   Clear
6:54 AM 26.8 °F 22.8 °F 25.5 °F 95% 30.09 in 10.0 mi South 3.5 mph - N/A   Clear
7:14 AM 25.3 °F - 23.7 °F 94% 30.10 in 10.0 mi Calm Calm - N/A   Clear
7:34 AM 25.9 °F - 24.6 °F 95% 30.11 in 10.0 mi Calm Calm - N/A   Clear
7:54 AM 28.4 °F 24.6 °F 26.6 °F 93% 30.10 in 10.0 mi SSE 3.5 mph - N/A   Clear
8:14 AM 31.8 °F - 29.3 °F 90% 30.11 in 10.0 mi Calm Calm - N/A   Clear
8:34 AM 34.3 °F - 30.2 °F 85% 30.11 in 10.0 mi Calm Calm - N/A   Clear
8:54 AM 37.6 °F - 31.5 °F 79% 30.11 in 10.0 mi Calm Calm - N/A   Clear
9:14 AM 43.5 °F - 33.3 °F 67% 30.12 in 10.0 mi Calm Calm - N/A   Clear
9:34 AM 51.6 °F - 28.8 °F 41% 30.11 in 10.0 mi ESE 3.5 mph - N/A   Clear
9:54 AM 56.8 °F - 23.2 °F 27% 30.11 in 10.0 mi Calm Calm - N/A   Clear
10:14 AM 57.4 °F - 18.5 °F 22% 30.11 in 10.0 mi Calm Calm - N/A   Clear
10:34 AM 58.8 °F - 17.4 °F 20% 30.11 in 10.0 mi Calm Calm - N/A   Clear
10:54 AM 59.5 °F - 15.6 °F 18% 30.10 in 10.0 mi Calm Calm - N/A   Clear
11:14 AM 61.3 °F - 15.3 °F 17% 30.09 in 10.0 mi Calm Calm - N/A   Clear
11:34 AM 61.0 °F - 15.3 °F 17% 30.09 in 10.0 mi Calm Calm - N/A   Clear
11:54 AM 61.7 °F - 15.3 °F 16% 30.08 in 10.0 mi Calm Calm - N/A   Clear
12:14 PM 61.5 °F - 13.6 °F 15% 30.08 in 10.0 mi Calm Calm - N/A   Clear
12:34 PM 62.4 °F - 14.0 °F 15% 30.07 in 10.0 mi Calm Calm - N/A   Clear
12:54 PM 62.8 °F - 14.4 °F 15% 30.07 in 10.0 mi South 3.5 mph - N/A   Clear
1:14 PM 63.1 °F - 14.4 °F 15% 30.07 in 10.0 mi NW 11.5 mph - N/A   Clear
1:34 PM 63.0 °F - 18.7 °F 18% 30.07 in 10.0 mi NNW 9.2 mph - N/A   Clear
1:54 PM 62.1 °F - 17.8 °F 18% 30.07 in 10.0 mi North 4.6 mph - N/A   Clear
2:14 PM 61.9 °F - 18.7 °F 19% 30.07 in 10.0 mi North 6.9 mph - N/A   Clear
2:34 PM 61.7 °F - 18.0 °F 18% 30.07 in 10.0 mi North 11.5 mph - N/A   Clear
2:54 PM 61.0 °F - 15.3 °F 17% 30.08 in 10.0 mi NNW 13.8 mph - N/A   Clear
3:14 PM 59.7 °F - 14.5 °F 17% 30.08 in 10.0 mi NW 11.5 mph 16.1 mph N/A   Clear
3:34 PM 58.6 °F - 15.8 °F 19% 30.09 in 10.0 mi NW 8.1 mph - N/A   Clear
3:54 PM 57.2 °F - 16.9 °F 21% 30.10 in 10.0 mi NW 6.9 mph - N/A   Clear
4:14 PM 54.5 °F - 17.6 °F 23% 30.10 in 10.0 mi NW 6.9 mph - N/A   Clear
4:34 PM 49.6 °F - 18.7 °F 29% 30.11 in 10.0 mi WNW 4.6 mph - N/A   Clear
4:54 PM 46.0 °F 44.8 °F 19.4 °F 35% 30.11 in 10.0 mi West 3.5 mph - N/A   Clear
5:14 PM 42.3 °F 40.5 °F 19.2 °F 40% 30.11 in 10.0 mi WNW 3.5 mph - N/A   Clear
5:34 PM 42.8 °F - 19.0 °F 39% 30.12 in 10.0 mi Calm Calm - N/A   Clear
5:54 PM 39.7 °F - 20.8 °F 47% 30.12 in 10.0 mi Calm Calm - N/A   Clear
6:14 PM 38.5 °F - 21.2 °F 50% 30.13 in 10.0 mi Calm Calm - N/A   Clear
6:34 PM 35.6 °F - 23.0 °F 60% 30.14 in 10.0 mi Calm Calm - N/A   Clear
6:54 PM 33.8 °F - 23.2 °F 65% 30.15 in 10.0 mi Calm Calm - N/A   Clear
7:14 PM 33.1 °F - 23.4 °F 67% 30.15 in 10.0 mi Calm Calm - N/A   Clear
7:34 PM 32.0 °F 28.7 °F 23.0 °F 69% 30.15 in 10.0 mi SSW 3.5 mph - N/A   Clear
7:54 PM 32.2 °F - 23.0 °F 69% 30.15 in 10.0 mi Calm Calm - N/A   Clear
8:14 PM 32.4 °F - 23.0 °F 68% 30.15 in 10.0 mi Calm Calm - N/A   Clear
8:34 PM 31.8 °F 26.2 °F 23.5 °F 71% 30.15 in 10.0 mi SW 5.8 mph - N/A   Clear
8:54 PM 30.9 °F 25.2 °F 23.2 °F 73% 30.15 in 10.0 mi SSW 5.8 mph - N/A   Clear
9:14 PM 31.1 °F - 23.0 °F 72% 30.16 in 10.0 mi Calm Calm - N/A   Clear
9:34 PM 29.7 °F 24.7 °F 23.2 °F 77% 30.15 in 10.0 mi SW 4.6 mph - N/A   Clear
9:54 PM 29.3 °F - 23.0 °F 77% 30.16 in 10.0 mi Calm Calm - N/A   Clear
10:14 PM 30.0 °F - 23.2 °F 76% 30.15 in 10.0 mi Calm Calm - N/A   Clear
10:34 PM 28.2 °F 24.4 °F 23.4 °F 82% 30.15 in 10.0 mi South 3.5 mph - N/A   Clear
10:54 PM 29.5 °F - 22.6 °F 76% 30.16 in 10.0 mi Calm Calm - N/A   Clear
11:14 PM 29.1 °F - 21.7 °F 74% 30.16 in 10.0 mi Calm Calm - N/A   Clear
11:34 PM 29.3 °F - 22.3 °F 75% 30.16 in 10.0 mi Calm Calm - N/A   Clear
11:54 PM 28.0 °F 24.2 °F 21.9 °F 78% 30.15 in 10.0 mi South 3.5 mph - N/A   Clear